New Bedford, MA

11:54 PM EST on February 08, 2016 (GMT -0500)
New Bedford Regional

Weather History for KEWB - December, 2013

Change the Weather History Date:

Wednesday, December 25, 2013

  Actual Average Record
Temperature  
Mean Temperature 22 °F -  
Max Temperature 28 °F - - ()
Min Temperature 16 °F - - ()
Degree Days  
Heating Degree Days 43    
Moisture  
Dew Point 7 °F    
Average Humidity 57    
Maximum Humidity 92    
Minimum Humidity 39    
Precipitation  
Precipitation 0.00 in - - ()
Sea Level Pressure  
Sea Level Pressure 30.44 in    
Wind  
Wind Speed 8 mph (NNW)    
Max Wind Speed 14 mph    
Max Gust Speed 26 mph    
Visibility 10 miles    
Events      
T = Trace of Precipitation, MM = Missing Value Source: NWS Daily Summary

Daily Weather History Graph

Daily Weather History Graph

Search for Another Location

Airport or City:

Trip Planner

Search our weather history database for the weather conditions in past years. The results will help you decide how hot, cold, wet, or windy it might be!

Date:

Astronomy

Dec. 25, 2013 Rise Set
Actual Time 7:09 AM EST 4:18 PM EST
Civil Twilight 6:37 AM EST 4:50 PM EST
Nautical Twilight 6:02 AM EST 5:25 PM EST
Astronomical Twilight 5:28 AM EST 5:59 PM EST
Moon No Moon Rise 11:25 AM EST (12/25)
Length of Visible Light 10h 12m
Length of Day
9h 09m
Waning Gibbous, 49% of the Moon is Illuminated
Dec 25
Waning Gibbous
Jan 1
New
Jan 7
First Quarter
Jan 15
Full
Jan 24
Last Quarter

Hourly Weather History & Observations

Time (EST) Temp. Windchill Dew Point Humidity Pressure Visibility Wind Dir Wind Speed Gust Speed Precip Events Conditions
12:53 AM 28.0 °F 17.5 °F 12.9 °F 53% 30.21 in 10.0 mi WNW 12.7 mph 20.7 mph N/A   Overcast
1:53 AM 27.0 °F 16.7 °F 12.0 °F 53% 30.23 in 10.0 mi WNW 11.5 mph 18.4 mph N/A   Clear
2:53 AM 23.0 °F 10.6 °F 7.0 °F 50% 30.27 in 10.0 mi WNW 13.8 mph 26.5 mph N/A   Clear
3:53 AM 21.9 °F 11.0 °F 6.1 °F 51% 30.30 in 10.0 mi NW 10.4 mph 17.3 mph N/A   Clear
4:53 AM 21.0 °F 10.6 °F 5.0 °F 50% 30.32 in 10.0 mi WNW 9.2 mph 18.4 mph N/A   Clear
5:53 AM 19.9 °F 6.7 °F 5.0 °F 52% 30.35 in 10.0 mi WNW 13.8 mph 21.9 mph N/A   Clear
6:53 AM 19.0 °F 8.2 °F 5.0 °F 54% 30.38 in 10.0 mi WNW 9.2 mph 17.3 mph N/A   Clear
7:53 AM 19.0 °F 9.0 °F 6.1 °F 57% 30.40 in 10.0 mi NW 8.1 mph - N/A   Clear
8:53 AM 19.9 °F 9.3 °F 3.9 °F 50% 30.43 in 10.0 mi North 9.2 mph 19.6 mph N/A   Clear
9:53 AM 21.0 °F 12.4 °F 3.0 °F 46% 30.45 in 10.0 mi NNW 6.9 mph - N/A   Clear
10:53 AM 21.9 °F 12.5 °F 1.0 °F 40% 30.45 in 10.0 mi NNE 8.1 mph 17.3 mph N/A   Clear
11:53 AM 21.9 °F 13.4 °F 1.9 °F 42% 30.45 in 10.0 mi Variable 6.9 mph - N/A   Clear
12:53 PM 23.0 °F 14.7 °F 1.9 °F 40% 30.46 in 10.0 mi Variable 6.9 mph - N/A   Clear
1:53 PM 23.0 °F 17.0 °F 1.0 °F 39% 30.47 in 10.0 mi Variable 4.6 mph - N/A   Clear
2:53 PM 23.0 °F - 1.0 °F 39% 30.50 in 10.0 mi Calm Calm - N/A   Clear
3:53 PM 21.9 °F 15.7 °F 1.9 °F 42% 30.52 in 10.0 mi ENE 4.6 mph - N/A   Clear
4:53 PM 21.0 °F 14.6 °F 3.0 °F 46% 30.53 in 10.0 mi NE 4.6 mph - N/A   Clear
5:53 PM 19.9 °F 13.4 °F 5.0 °F 52% 30.55 in 10.0 mi NE 4.6 mph - N/A   Clear
6:53 PM 19.9 °F - 6.1 °F 55% 30.54 in 10.0 mi Calm Calm - N/A   Clear
7:53 PM 18.0 °F - 7.0 °F 62% 30.54 in 10.0 mi Calm Calm - N/A   Clear
8:53 PM 16.0 °F - 10.9 °F 81% 30.54 in 10.0 mi Calm Calm - N/A   Clear
9:53 PM 16.0 °F - 10.9 °F 81% 30.53 in 10.0 mi Calm Calm - N/A   Clear
10:12 PM 17.1 °F - 14.0 °F 88% 30.52 in 10.0 mi Calm Calm - N/A   Mostly Cloudy
10:44 PM 17.1 °F - 12.9 °F 84% 30.53 in 10.0 mi Calm Calm - N/A   Scattered Clouds
10:53 PM 17.1 °F - 12.9 °F 84% 30.53 in 10.0 mi Calm Calm - N/A   Partly Cloudy
11:53 PM 16.0 °F - 14.0 °F 92% 30.50 in 10.0 mi Calm Calm - N/A   Partly Cloudy